Temperature
14 14 14 14 14 14 14 14 15 15 15 15 15 16 16 16 16 16 16 17 17 17 17 17 17 17 17 17 17 17 17 17 18 18 18 18 18 18 18 18 18 18 18
14 14 14 14 14 14 14 14 14 14 15 15 15 15 15 16 16 16 16 16 17 17 17 17 17 17 17 17 17 17 17 17 17 17 18 18 18 18 18 18 18 18 18
14 14 14 14 14 14 14 14 14 14 14 15 15 15 15 15 15 16 16 16 16 17 17 17 17 17 17 17 17 17 17 17 17 17 18 18 18 18 18 18 18 18 18
14 13 13 13 13 13 13 14 14 14 14 15 15 15 15 15 15 16 16 16 16 16 16 17 17 17 17 17 17 17 17 17 17 17 17 17 18 18 18 18 18 18 17
13 13 13 13 13 13 13 13 14 14 14 14 15 15 15 15 15 15 16 16 16 16 16 16 17 17 17 17 17 17 17 17 17 17 17 17 17 17 18 17 17 17 17
13 13 13 13 13 13 13 13 13 13 14 14 14 15 15 15 15 15 15 16 16 16 16 16 16 16 17 17 17 17 17 17 17 17 17 17 17 17 17 17 17 17 17
13 13 13 13 13 13 13 13 13 13 14 14 14 15 15 15 15 15 15 15 16 16 16 16 16 16 16 17 17 17 17 17 17 17 17 17 17 17 17 17 17 17 17
13 13 13 13 13 13 13 13 13 13 14 14 14 15 15 15 15 15 15 15 15 15 16 16 16 16 16 17 17 17 17 17 17 17 17 17 17 17 17 17 17 17 17
13 12 13 13 13 13 13 13 13 13 13 14 14 14 15 15 15 15 15 15 15 15 15 16 16 16 16 16 16 17 17 17 17 17 17 17 17 17 17 17 17 17 17
13 13 12 12 13 13 13 13 13 13 13 13 14 14 14 14 15 15 15 15 15 15 15 15 16 16 16 16 16 16 17 17 17 17 17 17 17 17 17 17 17 17 17
13 13 12 12 13 13 13 13 13 13 13 13 13 13 14 14 15 15 15 14 15 15 15 15 15 16 16 16 16 16 16 16 17 17 17 17 17 17 17 17 17 17 17
13 13 13 13 13 13 12 13 13 13 13 13 13 13 14 14 14 14 15 14 14 14 15 15 15 15 16 16 16 16 16 16 16 16 16 17 17 17 17 17 17 17 17
14 13 13 13 13 13 13 13 13 13 13 13 13 13 13 13 14 14 14 14 14 14 14 14 15 15 15 15 16 16 16 16 16 16 16 16 16 16 16 16 16 17 17
14 13 13 13 13 13 13 13 13 13 13 13 13 13 13 13 13 13 14 14 14 14 14 14 14 15 15 15 15 15 16 16 16 16 16 16 16 16 16 16 16 16 16
14 13 13 13 13 13 13 13 13 13 13 13 13 13 13 13 13 13 13 14 14 14 14 14 14 14 14 15 15 15 15 16 16 16 16 16 16 16 16 16 16 16 16
14 14 13 13 13 13 13 13 13 13 13 13 13 13 13 13 13 13 13 13 14 14 14 14 14 14 14 14 15 15 15 15 15 16 16 16 16 16 16 16 16 16 16
14 14 14 14 13 13 13 13 13 13 13 13 13 13 13 13 13 13 13 13 13 13 14 14 13 14 14 14 14 14 14 14 15 15 15 15 15 15 15 15 15 15 16
14 14 14 14 14 13 13 13 13 13 13 13 13 13 13 13 13 13 13 13 13 13 13 14 13 13 13 13 14 14 14 14 14 15 15 15 15 15 15 15 15 15 15
14 14 14 14 14 14 13 13 13 13 13 13 13 13 13 13 13 13 13 13 13 13 13 13 13 13 13 13 13 13 13 14 14 14 14 14 15 15 15 15 15 15 15
15 14 14 14 14 14 14 14 13 13 13 13 13 13 13 13 13 13 13 13 13 13 13 13 13 13 13 13 13 13 13 13 13 13 14 14 14 14 14 14 14 14 14
15 14 14 14 14 14 14 14 14 13 13 13 13 13 13 13 13 13 12 12 12 13 13 13 13 13 13 13 13 13 13 13 13 13 13 13 13 13 13 13 14 14 14
15 15 14 14 14 14 14 14 14 14 13 13 13 13 13 13 13 13 13 13 13 12 13 13 13 13 13 13 13 13 13 13 13 13 13 13 13 13 13 13 13 13 13
15 15 15 15 15 14 15 14 14 14 14 14 14 13 13 13 13 13 13 13 13 13 13 13 13 13 13 13 12 12 12 13 13 12 12 13 13 13 12 13 13 13 13
15 15 15 15 15 15 15 15 14 14 14 14 14 13 13 13 13 13 13 13 12 13 13 13 12 12 12 12 12 12 12 12 12 12 12 12 12 12 12 12 12 13 13
15 15 15 15 15 15 15 15 14 14 14 14 14 14 13 13 13 13 13 12 12 12 13 13 12 12 12 12 12 12 12 12 12 12 12 12 12 12 12 12 12 12 12
14 14 14 15 15 15 15 15 15 14 14 14 14 14 14 13 13 13 13 12 12 12 12 12 12 12 12 12 12 12 12 12 12 12 11 11 11 11 12 11 11 11 11
Wind_Speed
5 4 4 4 5 5 4 4 5 4 5 5 5 5 5 5 5 5 3 4 3 3 3 4 5 5 5 5 6 6 7 7 8 8 8 8 8 9 10 11 11 12 12
5 5 4 4 5 5 5 5 5 4 4 4 4 4 5 5 4 4 5 5 5 4 3 3 4 5 5 6 6 7 8 8 8 9 9 9 9 10 10 11 11 11 11
5 5 5 5 5 6 5 5 5 5 4 4 4 4 4 4 4 4 4 4 5 6 5 3 3 4 5 6 7 7 8 8 8 9 9 9 9 9 10 11 11 11 11
6 5 5 5 5 5 5 4 4 4 4 4 3 3 3 3 4 4 4 4 4 4 6 5 5 6 6 6 7 7 8 9 9 9 9 10 10 10 10 10 11 11 11
6 5 4 5 6 5 5 5 4 4 4 3 3 2 2 2 3 4 4 3 4 4 4 6 7 8 7 6 6 8 8 9 9 9 10 10 10 10 10 11 11 11 11
6 5 4 5 6 4 5 5 4 3 3 3 3 1 1 1 2 2 3 2 3 4 3 4 5 8 8 7 7 7 8 9 9 10 10 11 11 11 11 11 11 11 11
5 5 5 5 5 5 5 5 5 3 3 2 2 1 2 1 1 0 1 1 2 2 3 3 4 5 7 8 8 8 8 8 9 10 10 11 11 11 12 11 11 11 11
5 5 5 5 4 5 5 6 5 4 3 2 2 2 2 2 1 1 0 0 1 2 2 3 4 4 4 5 8 9 8 8 8 9 10 10 11 12 12 12 12 12 12
4 4 5 5 5 5 5 5 5 4 3 2 2 2 2 1 1 1 1 1 1 1 2 2 2 4 4 5 6 8 8 8 7 8 9 10 11 12 12 12 12 12 12
3 4 4 5 5 5 5 5 4 4 4 3 2 2 2 2 1 1 1 1 2 2 2 2 2 3 4 4 5 5 7 7 6 7 8 8 10 12 12 12 12 12 13
2 3 4 4 4 4 5 5 4 4 3 3 3 2 2 2 2 1 1 2 2 1 1 2 2 2 3 3 3 5 6 6 5 5 6 7 9 9 10 11 12 12 13
2 2 3 4 4 4 4 4 4 3 3 3 3 2 2 2 2 1 1 2 2 1 1 2 1 2 3 3 4 6 6 5 5 5 5 6 7 8 8 9 10 11 12
2 2 3 3 3 4 4 4 3 3 2 2 2 2 2 2 2 1 1 1 1 1 1 1 1 2 3 3 3 5 5 4 4 5 5 5 6 7 8 8 9 9 10
3 3 3 3 3 3 3 3 3 2 2 2 2 2 2 2 2 1 1 1 2 1 2 2 1 1 2 2 3 2 4 5 4 4 5 6 6 7 8 8 8 9 8
3 3 3 3 3 3 3 3 3 2 2 2 2 1 1 1 1 1 1 2 1 2 2 3 2 1 1 2 1 2 3 5 4 4 5 6 6 6 7 8 8 7 7
4 4 4 4 3 3 3 3 3 2 3 2 2 2 2 1 1 1 1 1 2 2 1 2 1 1 1 2 1 1 2 5 5 5 5 5 6 6 6 7 7 7 7
6 5 5 5 5 4 4 3 4 3 3 3 2 2 2 2 1 1 1 1 2 2 2 1 1 2 2 2 1 1 2 2 4 6 5 5 5 5 6 6 6 6 6
7 7 6 6 6 5 5 4 4 4 4 3 2 2 2 1 2 2 1 2 2 2 2 2 2 2 2 1 1 1 1 1 2 6 5 5 4 4 5 5 6 6 6
8 8 7 8 7 6 6 6 5 5 4 4 3 3 2 2 2 2 2 2 2 2 2 3 2 2 2 1 1 1 1 1 2 5 6 6 5 4 4 4 5 5 5
10 9 9 9 8 7 7 7 6 6 5 5 4 4 4 4 3 2 2 3 2 2 2 3 3 3 2 2 2 2 2 2 1 2 2 3 5 6 5 5 4 4 5
11 10 10 10 9 8 7 8 7 7 7 6 6 5 5 3 2 3 3 3 3 3 3 3 3 3 3 3 3 2 2 2 2 1 2 2 3 4 5 6 5 4 4
11 11 12 12 11 9 7 8 9 8 8 8 7 7 6 6 7 7 5 4 4 4 4 4 4 4 4 3 2 3 3 3 2 2 2 2 2 2 2 2 5 4 3
11 12 13 12 13 12 10 11 12 10 10 9 9 8 6 6 7 7 8 8 7 5 5 5 5 4 4 4 4 5 4 3 2 2 2 2 2 2 2 4 6 4 3
10 11 12 13 13 13 12 13 13 13 12 11 11 10 9 9 9 8 8 8 7 6 6 7 5 4 3 3 4 4 3 2 2 2 2 2 2 2 2 4 7 5 4
10 11 11 13 14 14 14 15 14 12 12 13 12 12 11 11 8 8 9 9 8 6 4 3 2 1 2 1 2 4 4 4 4 3 2 2 2 2 2 3 6 7 6
9 10 11 12 14 15 12 15 17 12 13 12 11 12 12 12 10 13 12 10 10 8 8 7 7 7 6 6 6 6 5 5 4 3 3 2 2 2 2 3 3 4 5
Wind_Direction
336 334 330 332 322 324 315 309 302 305 293 283 273 268 265 249 244 243 214 169 221 224 212 213 200 193 194 194 189 188 183 175 167 160 153 150 146 142 135 131 129 127 122
341 334 332 335 333 329 326 310 307 299 286 285 279 272 264 258 245 234 234 187 180 193 185 191 189 185 183 186 192 185 179 175 173 168 162 158 154 151 147 142 138 136 132
345 342 337 338 339 333 324 313 311 299 287 282 270 263 259 261 257 241 232 220 191 170 164 172 184 178 184 190 195 186 180 177 182 176 171 165 160 157 154 151 148 146 141
353 349 342 341 338 331 326 319 309 301 289 283 276 264 254 249 255 254 234 216 203 192 168 162 181 179 187 193 189 185 183 179 185 181 175 171 168 164 161 159 155 153 148
350 352 350 340 338 335 333 324 325 313 304 293 273 257 256 251 254 246 230 213 193 190 179 154 170 177 182 188 184 181 182 180 183 183 179 176 174 171 170 167 164 160 157
350 347 343 346 345 343 342 339 332 313 308 300 277 255 243 244 244 239 238 213 193 180 180 168 171 173 174 179 178 176 174 177 183 185 183 181 179 177 176 174 173 169 167
345 347 337 349 344 349 346 345 333 315 317 315 283 224 181 184 185 170 236 223 183 171 182 170 180 172 167 172 173 175 175 182 187 187 187 186 185 183 182 179 180 181 178
345 342 345 345 351 344 347 350 342 326 328 327 300 265 215 183 173 118 104 192 189 161 173 173 187 173 169 165 161 170 176 183 189 188 190 189 189 187 186 186 186 187 185
339 342 345 344 348 347 352 345 343 338 330 337 347 316 286 249 158 136 100 100 96 133 149 155 173 169 162 163 161 165 171 178 184 189 188 191 192 190 190 194 194 193 193
329 334 334 337 344 350 349 346 355 333 325 334 345 329 318 333 271 173 143 115 89 93 120 134 140 135 147 150 145 141 162 175 184 192 190 189 194 196 194 198 200 198 197
317 323 328 332 339 344 351 349 348 343 337 333 329 320 315 298 282 253 167 147 115 76 71 101 122 113 118 129 143 131 140 154 170 180 183 187 190 196 196 202 203 205 204
301 315 316 319 325 337 344 343 342 345 343 342 330 333 322 312 310 284 200 149 119 87 80 72 82 93 99 109 106 102 122 148 163 165 168 176 182 192 193 202 203 206 208
292 312 306 311 324 334 336 336 329 335 338 333 335 332 327 314 317 300 223 161 141 137 129 108 76 92 97 109 106 106 113 130 152 165 164 169 177 187 195 201 204 206 210
293 306 298 304 311 318 325 333 320 331 334 335 342 332 317 328 318 305 250 201 176 174 176 144 140 130 106 110 107 152 128 130 145 163 171 175 181 188 196 199 201 204 205
271 273 277 278 285 296 311 319 317 325 323 326 333 328 313 327 301 305 272 264 242 197 179 160 154 138 135 110 175 182 162 130 150 163 174 178 177 182 190 194 195 196 199
256 261 261 263 264 268 277 290 297 313 297 307 306 311 316 296 306 273 258 262 276 259 188 153 154 161 175 171 183 189 155 153 161 167 167 169 173 178 182 186 189 194 200
244 246 254 262 266 270 270 263 281 280 284 281 262 278 287 299 272 239 231 235 241 243 202 156 157 170 190 189 167 176 188 191 154 150 159 166 169 175 185 189 189 189 195
249 249 248 255 258 264 266 264 264 263 269 274 264 261 261 246 254 247 235 225 219 237 222 190 184 186 199 193 187 201 206 183 165 140 153 163 167 175 182 187 191 193 199
246 245 241 247 253 256 255 253 251 252 252 254 250 251 257 252 241 220 229 225 214 218 226 213 196 184 208 191 184 204 205 196 186 155 167 173 168 170 170 177 189 198 205
245 248 247 246 248 250 250 249 247 246 247 247 242 242 245 242 244 235 224 220 218 219 216 215 205 197 199 194 210 203 193 185 199 176 171 175 169 176 172 170 181 195 205
247 246 249 248 245 245 246 248 245 243 243 241 238 237 234 242 303 269 255 231 218 224 217 217 214 212 207 201 207 206 209 201 186 192 201 189 186 189 178 173 172 175 182
250 247 246 246 245 241 222 229 249 245 242 241 239 235 225 214 218 224 245 270 278 246 231 223 224 221 222 213 206 218 211 209 196 175 220 192 201 193 188 149 123 142 158
252 248 245 243 242 240 213 213 226 246 246 246 244 236 228 221 213 218 208 213 231 251 264 257 241 231 227 211 208 213 216 225 217 161 224 198 180 175 145 99 115 129 138
256 249 246 243 242 240 215 215 216 232 243 243 240 239 233 226 216 221 219 215 220 216 221 232 241 239 228 210 218 227 218 215 205 191 227 225 188 178 151 124 114 115 115
270 259 251 245 244 242 215 211 213 233 238 240 238 235 234 232 195 202 225 223 221 217 200 228 313 4 67 100 232 208 201 206 209 187 190 224 207 196 178 152 130 130 121
281 273 262 253 248 249 226 207 213 233 238 237 235 233 226 234 197 191 220 224 224 219 207 195 201 202 204 193 208 221 217 221 220 202 174 206 204 205 193 169 163 164 146
Height
1525 1524 1523 1520 1520 1518 1517 1516 1516 1515 1514 1514 1514 1514 1515 1515 1516 1516 1517 1517 1518 1519 1520 1521 1523 1524 1525 1527 1528 1530 1531 1533 1534 1536 1537 1538 1539 1540 1541 1542 1543 1544 1545
1525 1523 1522 1520 1519 1517 1516 1515 1515 1513 1513 1512 1512 1512 1512 1514 1514 1514 1515 1516 1517 1518 1519 1520 1522 1523 1524 1526 1527 1529 1531 1533 1534 1536 1537 1539 1540 1541 1542 1543 1545 1546 1547
1524 1523 1521 1520 1518 1516 1515 1514 1513 1512 1511 1511 1511 1511 1511 1511 1512 1513 1514 1515 1516 1516 1517 1519 1520 1522 1523 1525 1527 1528 1530 1532 1534 1536 1537 1539 1540 1542 1543 1544 1546 1547 1548
1524 1522 1520 1519 1517 1516 1514 1513 1512 1511 1510 1510 1509 1509 1509 1509 1510 1511 1512 1513 1514 1515 1516 1517 1519 1521 1522 1524 1526 1527 1529 1531 1533 1535 1537 1539 1541 1542 1544 1545 1547 1548 1549
1523 1522 1520 1518 1517 1515 1514 1512 1511 1510 1509 1508 1508 1508 1508 1508 1508 1509 1511 1512 1512 1513 1515 1516 1518 1520 1521 1523 1525 1526 1528 1531 1533 1535 1536 1538 1540 1542 1544 1545 1547 1548 1550
1523 1522 1520 1518 1516 1515 1513 1511 1510 1509 1508 1507 1507 1507 1507 1507 1507 1508 1509 1510 1511 1512 1513 1515 1517 1519 1520 1522 1524 1526 1527 1529 1532 1534 1536 1538 1540 1542 1544 1545 1547 1549 1550
1522 1521 1520 1518 1516 1514 1512 1511 1509 1509 1508 1507 1507 1507 1506 1506 1507 1507 1507 1509 1510 1511 1512 1514 1516 1517 1519 1521 1523 1525 1527 1529 1531 1533 1535 1537 1539 1541 1543 1545 1547 1548 1550
1522 1521 1520 1518 1516 1514 1512 1511 1509 1508 1507 1506 1506 1506 1506 1508 1506 1506 1506 1507 1509 1510 1511 1513 1514 1516 1518 1520 1522 1524 1526 1528 1530 1532 1534 1536 1538 1540 1542 1544 1546 1548 1550
1522 1521 1520 1518 1516 1515 1513 1510 1509 1508 1507 1507 1506 1506 1506 1506 1506 1506 1506 1507 1507 1509 1510 1512 1513 1515 1517 1519 1521 1522 1524 1527 1529 1531 1533 1535 1536 1539 1541 1543 1545 1547 1549
1522 1520 1519 1518 1517 1515 1513 1511 1509 1508 1507 1507 1506 1505 1506 1506 1506 1506 1506 1506 1507 1508 1509 1511 1512 1514 1515 1517 1519 1521 1523 1525 1527 1529 1531 1533 1534 1537 1539 1541 1543 1545 1547
1522 1520 1519 1518 1517 1515 1513 1511 1509 1508 1507 1507 1506 1506 1505 1505 1506 1506 1506 1507 1507 1507 1508 1510 1512 1513 1514 1516 1518 1520 1522 1524 1526 1528 1529 1530 1532 1535 1537 1539 1542 1544 1546
1522 1521 1519 1518 1517 1515 1513 1511 1510 1508 1507 1506 1506 1506 1505 1505 1506 1506 1506 1506 1506 1507 1508 1509 1511 1512 1514 1515 1517 1519 1521 1523 1524 1526 1527 1529 1531 1533 1535 1537 1540 1542 1544
1522 1521 1519 1518 1517 1515 1513 1511 1510 1509 1508 1507 1506 1506 1505 1505 1505 1505 1505 1505 1506 1507 1508 1509 1510 1511 1513 1514 1516 1518 1519 1521 1523 1524 1526 1527 1529 1531 1533 1535 1537 1539 1541
1521 1519 1518 1517 1516 1514 1513 1511 1510 1509 1508 1507 1506 1505 1505 1505 1504 1504 1505 1505 1506 1507 1508 1509 1510 1511 1512 1513 1515 1516 1518 1519 1520 1522 1524 1525 1527 1529 1530 1532 1534 1536 1538
1519 1518 1517 1516 1515 1514 1512 1511 1510 1509 1508 1507 1506 1505 1505 1504 1504 1504 1504 1505 1506 1506 1507 1509 1509 1510 1511 1512 1513 1515 1516 1517 1518 1520 1521 1523 1525 1526 1528 1529 1531 1533 1535
1518 1517 1516 1516 1515 1513 1512 1511 1510 1508 1508 1507 1505 1505 1504 1504 1504 1503 1503 1504 1505 1506 1506 1508 1508 1509 1510 1511 1512 1513 1514 1515 1516 1517 1519 1520 1522 1523 1525 1526 1528 1530 1531
1516 1516 1515 1515 1514 1513 1512 1510 1509 1508 1507 1507 1506 1505 1504 1503 1503 1503 1503 1503 1504 1505 1506 1507 1507 1508 1509 1510 1510 1511 1512 1513 1514 1515 1516 1518 1519 1520 1522 1523 1525 1526 1528
1514 1514 1513 1513 1512 1511 1510 1509 1508 1507 1506 1506 1505 1504 1504 1503 1502 1502 1502 1503 1503 1504 1505 1505 1506 1507 1508 1508 1508 1509 1510 1511 1512 1512 1514 1515 1516 1518 1519 1520 1521 1523 1524
1511 1511 1511 1510 1510 1510 1509 1507 1507 1506 1505 1505 1504 1503 1503 1502 1502 1502 1501 1502 1502 1503 1504 1505 1505 1505 1506 1506 1507 1507 1509 1509 1510 1511 1512 1513 1514 1515 1516 1517 1518 1519 1520
1508 1508 1508 1508 1507 1507 1507 1506 1505 1504 1504 1504 1503 1502 1502 1502 1502 1501 1501 1501 1501 1502 1502 1503 1504 1504 1504 1504 1505 1506 1507 1508 1509 1509 1510 1511 1511 1512 1513 1514 1515 1516 1517
1504 1504 1505 1504 1504 1504 1504 1504 1504 1503 1502 1502 1501 1501 1500 1500 1500 1500 1500 1501 1500 1501 1501 1502 1502 1503 1503 1503 1504 1505 1506 1506 1507 1507 1508 1509 1510 1510 1511 1511 1512 1512 1514
1500 1500 1500 1500 1500 1500 1500 1500 1500 1500 1500 1500 1500 1499 1499 1498 1498 1498 1498 1498 1499 1499 1500 1500 1500 1501 1501 1502 1502 1503 1504 1505 1506 1506 1507 1508 1508 1509 1509 1510 1509 1510 1511
1495 1494 1494 1495 1495 1495 1496 1496 1496 1497 1497 1497 1497 1497 1497 1496 1496 1496 1496 1496 1496 1497 1497 1498 1499 1499 1499 1499 1500 1501 1502 1503 1504 1504 1505 1506 1506 1507 1507 1506 1507 1508 1508
1489 1488 1488 1489 1489 1490 1490 1491 1492 1492 1493 1493 1493 1493 1493 1493 1493 1494 1494 1494 1494 1494 1495 1495 1496 1497 1497 1497 1498 1499 1499 1500 1501 1501 1502 1504 1504 1505 1505 1504 1504 1505 1505
1484 1483 1482 1482 1482 1483 1485 1486 1487 1487 1488 1488 1488 1489 1489 1490 1489 1490 1491 1491 1492 1492 1492 1492 1493 1493 1493 1494 1495 1496 1497 1498 1499 1500 1500 1501 1502 1502 1503 1503 1502 1502 1503
1478 1477 1476 1475 1476 1476 1478 1479 1481 1481 1482 1483 1483 1483 1483 1484 1485 1485 1487 1488 1488 1489 1489 1489 1489 1490 1490 1491 1492 1493 1495 1496 1497 1498 1497 1498 1499 1500 1501 1501 1501 1501 1500